Regional Weather Roundup
Issued by NWS

Home | Current Version | Previous Version | Graphics & Text | Print | Product List | Glossary On
Versions: 1 2 3 4 5 6 7 8 9 10 11 12 13 14 15 16 17 18 19 20 21 22 23 24 25 26 27 28 29 30 31 32 33 34 35 36
000
ASUS45 KCYS 220810
RWRWY

WYOMING REGIONAL WEATHER ROUNDUP
NATIONAL WEATHER SERVICE CHEYENNE WY
200 AM MDT WED OCT 22 2014

NOTE:  "FAIR" INDICATES FEW OR NO CLOUDS BELOW 12,000 FEET
WITH NO SIGNIFICANT WEATHER AND/OR OBSTRUCTIONS TO VISIBILITY.

WYZ001-220900-
YELLOWSTONE NATIONAL PARK

CITY           SKY/WX    TMP DP  RH WIND       PRES   REMARKS
LK YELLOWSTONE   N/A     26  24  92 CALM      30.13R
W YELLOWSTONE  NOT AVBL

$$
WYZ002>013-054>058-071-098>099-220900-
NORTHERN WYOMING

CITY           SKY/WX    TMP DP  RH WIND       PRES   REMARKS
JACKSON        CLOUDY    37  30  75 SE3       30.12S
CODY           CLEAR    N/A N/A N/A W7        29.99R
GREYBULL       CLEAR     41  24  51 E6        29.96R
WORLAND        CLEAR     35  22  58 CALM      29.98R
SHERIDAN       PTCLDY    47  28  47 NW12      29.95R
BUFFALO        MOCLDY    41  28  60 W10       29.97R
GILLETTE       PTCLDY    48  28  46 NW12      29.94R
HULETT         FAIR      52  34  50 W6        29.92
NEWCASTLE      FAIR      54  36  50 NW8       29.89

$$
WYZ014>020-022>026-101>103-220900-
CENTRAL WYOMING

CITY           SKY/WX    TMP DP  RH WIND       PRES   REMARKS
BIG PINEY      CLEAR     25  20  81 NW5       30.14S WCI  19
PINEDALE       MOSUNNY   27  25  93 W7        30.14S WCI  19
DUBOIS         FAIR      34  23  64 W20       30.06F WCI  22
LANDER         PTCLDY    38  23  55 W7        30.02R WCI  33
RIVERTON       CLEAR     41  22  46 W9        30.02R
CASPER         PTCLDY    44  21  40 NW10      30.00R
DOUGLAS        MOCLDY    52  39  61 N7        29.98R

$$
WYZ021-027>030-104>119-220900-
SOUTHERN WYOMING

CITY           SKY/WX    TMP DP  RH WIND       PRES   REMARKS
EVANSTON       CLEAR     36  24  62 CALM      30.14S
FORT BRIDGER   FAIR      34  28  78 W9        30.17R WCI  26
ROCK SPRINGS   PTCLDY    36  29  75 W9        30.13R WCI  29
DIXON          LGT RAIN  45  42  90 W6        30.16S
RAWLINS        RAIN      41  34  76 W15       30.10R
SARATOGA       CLOUDY    43  37  81 SW13      30.12R
LARAMIE        CLOUDY    41  37  86 SW6       30.07S
CHEYENNE       MOCLDY    49  41  74 NW3       30.03F
TORRINGTON     LGT RAIN  54  47  77 W10       29.95R
PINE BLUFFS    LGT RAIN  50  46  87 NW10      30.00F

$$



USA.gov is the U.S. government's official web portal to all federal, state and local government web resources and services.